This demonstration page uses our WeatherBlox Daily Observations layout. Learn more.

Left ArrowRight Arrow

38.89511, -77.03637

Hourly Observations for July 22, 2021

Temp ( °F °C ) Dew Point ( °F °C ) Humidity (%) Winds ( mph kmh ) Pressure ( in mb ) Visibility ( mi km ) Precip ( " mm )
12:52 am 00:52 Mostly Cloudy 74 23.3 59 15 60 60 N 12 19 30.06 1018 10 16 N/A
1:52 am 01:52 Mostly Cloudy 73 22.8 58 14.4 59 59 N 15 24 30.06 1018 10 16 N/A
2:52 am 02:52 Mostly Cloudy 71 21.7 59 15 66 66 NNW 9 15 30.07 1018 10 16 N/A
3:52 am 03:52 Partly Cloudy 70 21.1 59 15 68 68 N 13 20 30.07 1018 10 16 N/A
4:52 am 04:52 Partly Cloudy 70 21.1 58 14.4 66 66 N 13 20 30.08 1019 10 16 N/A
5:52 am 05:52 Mostly Clear 69 20.6 57 13.9 66 66 NNW 10 17 30.09 1019 10 16 N/A
6:52 am 06:52 Mostly Sunny 69 20.6 56 13.3 63 63 N 12 19 30.11 1020 10 16 N/A
7:52 am 07:52 Mostly Sunny 71 21.7 57 13.9 61 61 N 12 19 30.12 1020 10 16 N/A
8:52 am 08:52 Mostly Cloudy 74 23.3 55 12.8 52 52 N 14 22 30.14 1021 10 16 N/A
9:52 am 09:52 Mostly Cloudy 77 25 53 11.7 43 43 N 13 20 30.15 1021 10 16 N/A
10:52 am 10:52 Mostly Cloudy 79 26.1 52 11.1 39 39 N 13 20 30.15 1021 10 16 N/A
11:52 am 11:52 Mostly Cloudy 78 25.6 49 9.4 36 36 N 9 15 30.16 1021 10 16 N/A
12:52 pm 12:52 Mostly Cloudy 81 27.2 49 9.4 33 33 VRB 7 11 30.15 1021 10 16 N/A
1:52 pm 13:52 Mostly Cloudy 81 27.2 51 10.6 35 35 NNW 10 17 30.13 1020 10 16 N/A
2:52 pm 14:52 Mostly Cloudy 83 28.3 50 10 32 32 N 14 22 30.13 1020 10 16 N/A
3:52 pm 15:52 Mostly Cloudy 84 28.9 51 10.6 32 32 VRB 7 11 30.12 1020 10 16 N/A
4:52 pm 16:52 Partly Cloudy 83 28.3 54 12.2 37 37 WNW 9 15 30.11 1020 10 16 N/A
5:52 pm 17:52 Partly Cloudy 83 28.3 53 11.7 36 36 NE 5 7 30.11 1020 10 16 N/A
6:52 pm 18:52 Mostly Cloudy 82 27.8 53 11.7 37 37 N 8 13 30.12 1020 10 16 N/A
7:52 pm 19:52 Partly Cloudy 79 26.1 53 11.7 41 41 N 8 13 30.14 1021 10 16 N/A
8:52 pm 20:52 Partly Cloudy 78 25.6 52 11.1 40 40 NNE 5 7 30.14 1021 10 16 N/A
9:52 pm 21:52 Partly Cloudy 76 24.4 52 11.1 43 43 N 6 9 30.16 1021 10 16 N/A
10:52 pm 22:52 Partly Cloudy 76 24.4 53 11.7 45 45 N N/A 30.16 1021 10 16 N/A
11:52 pm 23:52 Partly Cloudy 73 22.8 55 12.8 53 53 SW 3 6 30.17 1022 10 16 N/A

Powered by AerisWeather